AirNav   Air Wisconsin Up To $57,000 Bonus
 
 1144 users online  

1L4 Kidwell Airport
Cal Nev Ari, Nevada, USA

GOING TO CAL NEV ARI?


FAA INFORMATION EFFECTIVE 07 OCTOBER 2021

Location

FAA Identifier: 1L4
Lat/Long: 35-18-19.9780N 114-52-57.9100W
35-18.332967N 114-52.965167W
35.3055494,-114.8827528
(estimated)
Elevation: 2605 ft. / 794 m (estimated)
Variation: 14E (1985)
Time zone: UTC -7 (UTC -8 during Standard Time)
Zip code: 89039

Airport Operations

Airport use: Open to the public
Control tower: no
ARTCC: LOS ANGELES CENTER
FSS: RENO FLIGHT SERVICE STATION
NOTAMs facility: RNO (NOTAM-D service available)
Attendance: CONTINUOUS
Wind indicator: yes
Segmented circle: no
Lights: SS-SR

Airport Communications

CTAF: 122.9
WX AWOS-3PT at IFP (18 nm SE): 119.825 (928-754-4462)

Nearby radio navigation aids

VOR radial/distance  VOR name  Freq  Var
GFSr039/17.8GOFFS VORTAC114.4015E
EEDr313/38.1NEEDLES VORTAC115.2015E

Airport Services

Parking: tiedowns
Bottled oxygen: NONE
Bulk oxygen: NONE

Runway Information

Runway 15/33

Dimensions: 4140 x 65 ft. / 1262 x 20 m
Surface: sand, in fair condition
RWY IS MAINLY PACKED SAND AND SOME GRVL; RWY EDGES AND ENDS ARE FRQLY SOFT SAND IN DRY CONDS; RWY EDGES BURMED WITH SHARP SOIL EDGES; VARIES FROM 4 INS TO 12 INS. BRUSH IN THE RWY SAFETY AREA AND UP TO THE RWY EDGES EXCEEDS 5 FT IN HEIGHT.
Runway edge lights: non-standard
NSTD LIRL; THLD LGTS 6 GREEN LGTS.
Operational restrictions: ACFT IN TFC PAT USE CTN: 80 FT UNLGTD UNMARKED POLE 500 FT EAST OF RWY 33 THLD PENETRATES THE TRANSITIONAL 7:1 OCS TO THE RWY ALG THE HWY.
RUNWAY 15  RUNWAY 33
Traffic pattern: leftleft
Markings: none, in fair conditionnone, in fair condition
Obstructions: 5 ft. fence, 10 ft. from runway, 2:1 slope to clear15 ft. road, 560 ft. from runway, 37:1 slope to clear

Airport Ownership and Management from official FAA records

Ownership: Privately-owned
Owner: NANCY KIDWELL
PO BOX 430
CAL-NEV-ARI, NV 89039
Phone 702-297-1118
Manager: RICHARD SMITH
AIRPORT ROAD, PO BOX 317
CAL-NEV-ARI, NV 89039
Phone (702) 271-2146
ALTN CTC RICHARD SMITH, 702-271-2146.

Airport Operational Statistics

Aircraft based on the field: 17
Single engine airplanes: 13
Multi engine airplanes: 1
Ultralights: 3
    
Aircraft operations: avg 76/week *
55% local general aviation
45% transient general aviation
* for 12-month period ending 14 January 2020

Additional Remarks

ARPT IS RESIDENTIAL AIRPARK.
BE ALERT TO AUTOMOBILE TFC ON RY 15/33.
+70 FT TOWER 350 FT LEFT OF CNTRLN RWY 15 AND ADJACENT TO THE THLD.
ULTRALIGHT ACTIVITY ON AND IN VICINITY OF AIRPORT.
USE W TWY AT YOUR OWN RISK, NOT MNTNED BY THE ARPT AND HAS LARGE SCATTERED ROCKS.
RWY SFC ABT 5100 FT IN LEN, WITH UNMARKED 500 FT DISPLACEMENTS.
FOR CD CTC LOS ANGELES ARTCC AT 661-575-2079.

Instrument Procedures

There are no published instrument procedures at 1L4.

Some nearby airports with instrument procedures:

KIFP - Laughlin/Bullhead International Airport (18 nm SE)
KEED - Needles Airport (35 nm S)
KBVU - Boulder City Municipal Airport (39 nm N)
KHND - Henderson Executive Airport (42 nm N)
KIGM - Kingman Airport (46 nm E)
 
Loc | Ops | Rwys | IFR | FBO | Links
Com | Nav | Svcs | Stats | Notes
Area around 1L4 (Kidwell Airport)
 
Road maps at: MapQuest Bing Google
 
Aerial photo
WARNING: Photo may not be current or correct
Aerial photo of 1L4 (Kidwell Airport)
Photo by Megan Artz
Photo taken 25-Oct-2008
on final approach to runway 33

Do you have a better or more recent aerial photo of Kidwell Airport that you would like to share? If so, please send us your photo.

 
Sectional chart

 
Airport distance calculator
Flying to Kidwell Airport? Find the distance to fly.

From to 1L4

Sunrise and sunset
Times for 17-Oct-2021
 Local
(UTC-7)
 Zulu
(UTC)
Morning civil twilight06:2313:23
Sunrise06:4913:49
Sunset18:0101:01
Evening civil twilight18:2701:27

Current date and time
Zulu (UTC)  17-Oct-2021 23:44:43
Local (UTC-7)  17-Oct-2021 16:44:43
 
METAR
KIFP 
30nm SE 
172250Z 18014KT 20SM FEW120 31/M06 A2982
KEED 
35nm S 
172256Z AUTO 18012G20KT 10SM CLR 32/M07 A2984 RMK AO2 SLP079 T03171072
KBVU 
39nm N 
172335Z AUTO 15024KT 10SM CLR 27/M06 A2983 RMK AO2
KHND 
42nm N 
172256Z 24013KT 10SM CLR 28/M07 A2987 RMK AO2 SLP112 T02831067
KIGM 
47nm E 
172251Z AUTO 23017G26KT 10SM CLR 25/M01 A2997 RMK AO2 PK WND 22029/2203 SLP096 T02501011 $
KLAS 
48nm N 
172256Z 08008KT 10SM FEW180 SCT250 27/M04 A2984 RMK AO2 SLP087 T02721044
TAF
KIFP 
30nm SE 
171741Z 1718/1818 VRB05KT P6SM SCT250 FM172000 19010G18KT P6SM SCT250 FM180200 16008KT P6SM SKC
KEED 
35nm S 
171741Z 1718/1818 VRB05KT P6SM SCT250 FM172100 19012G22KT P6SM SKC FM180300 24010KT P6SM SKC
NOTAMs
Click for the latest NOTAMs
NOTAMs are issued by the DoD/FAA and will open in a separate window not controlled by AirNav.

 

 
 

Would you like to see your business listed on this page?

 If your business provides an interesting product or service to pilots, flight crews, aircraft, or users of the Kidwell Airport, you should consider listing it here.  To start the listing process, click on the button below
 
Add a business
 

Other Pages about Kidwell Airport

rentor.com/...
 
Update a link
 
Copyright © AirNav, LLC. All rights reserved. Privacy Policy  Contact